User: anonymous
Location: Caltech
(34.1382°N, 118.1253°W)
Time: 01:45:31
(UTC-07:00)
Language:

Oscar 11 - Orbit

View from above orbital plane
View from above orbital plane
View from above satellite
View from above satellite

Ground track
Ground track

The orbit data is extracted from the following two-line orbital elements,

1 14781U 84021B   14292.69511943  .00001242  00000-0  16367-3 0  6400
2 14781 097.8374 350.3068 0009996 131.8120 228.3949 14.81813950646402
Epoch (UTC): 19 October 2014 16:40:58
Eccentricity: 0.0009996
inclination: 97.8374°
perigee height: 616 km
apogee height: 630 km
right ascension of ascending node: 350.3068°
argument of perigee: 131.8120°
revolutions per day: 14.81813950
mean anomaly at epoch: 228.3949°
orbit number at epoch: 64640

The dashed part of the orbit path shows where the satellite is in the earth's shadow,  

DLR